Weather History for Eastsound, WA

Change the Weather History Date:

Thursday, October 6, 2011

  Actual Average (KBLI) Record (KBLI)
Temperature  
Mean Temperature 50 °F 52 °F  
Max Temperature 55 °F 61 °F 75 °F (1952)
Min Temperature 46 °F 43 °F 31 °F (1974)
Degree Days  
Heating Degree Days 14 13  
Month to date heating degree days 74  
Cooling Degree Days 0 0  
Month to date cooling degree days 0  
Year to date cooling degree days 42  
Moisture  
Dew Point 49 °F    
Average Humidity 90    
Maximum Humidity 100    
Minimum Humidity 77    
Precipitation  
Precipitation 0.00 in 0.09 in 1.29 in (1981)
Month to date precipitation 0.49  
Year to date precipitation 22.62  
Sea Level Pressure  
Sea Level Pressure 29.90 in    
Wind  
Wind Speed 1 mph (NNW)    
Max Wind Speed 6 mph    
Max Gust Speed -    
Visibility 10 miles    
Events      
T = Trace of Precipitation, MM = Missing Value Source: NWS Daily Summary

Daily Weather History Graph

Daily Weather History Graph

Search for Another Location

Airport:

Trip Planner

Search our weather history database for the weather conditions in past years. The results will help you decide how hot, cold, wet, or windy it might be!

Date:

Astronomy

Oct. 06, 2011 Rise Set
Actual Time 7:18 AM PDT 6:40 PM PDT
Civil Twilight 6:46 AM PDT 7:11 PM PDT
Nautical Twilight 6:10 AM PDT 7:48 PM PDT
Astronomical Twilight 5:33 AM PDT 8:25 PM PDT
Moon 4:17 PM PDT (10/6) 1:48 AM PDT (10/6)
Length of Visible Light 12h 25m
Length of Day
11h 22m
Waxing Gibbous, 76% of the Moon is Illuminated
Oct 6
Waxing Gibbous
Oct 11
Full
Oct 19
Last Quarter
Oct 26
New
Nov 2
First Quarter

Hourly Weather History & Observations

Time (PDT) Temp. Dew Point Humidity Pressure Visibility Wind Dir Wind Speed Gust Speed Precip Events Conditions
12:15 AM 50.0 °F 50.0 °F 100% 29.75 in 10.0 mi Calm Calm - N/A   Overcast
12:35 AM 50.0 °F 50.0 °F 100% 29.75 in 10.0 mi Calm Calm - N/A   Overcast
12:55 AM 50.0 °F 50.0 °F 100% 29.76 in 10.0 mi Calm Calm - N/A   Overcast
1:15 AM 50.0 °F 50.0 °F 100% 29.76 in 10.0 mi Calm Calm - N/A   Overcast
1:35 AM 50.0 °F 50.0 °F 100% 29.77 in 10.0 mi Calm Calm - N/A   Overcast
1:55 AM 50.0 °F 50.0 °F 100% 29.77 in 10.0 mi Calm Calm - N/A   Overcast
2:15 AM 50.0 °F 48.2 °F 94% 29.78 in 10.0 mi Calm Calm - N/A   Scattered Clouds
2:35 AM 48.2 °F 48.2 °F 100% 29.78 in 8.0 mi Calm Calm - N/A   Clear
2:55 AM 46.4 °F 46.4 °F 100% 29.79 in 5.0 mi Calm Calm - N/A   Scattered Clouds
3:15 AM 46.4 °F 46.4 °F 100% 29.80 in 9.0 mi Calm Calm - N/A   Mostly Cloudy
3:35 AM 48.2 °F 48.2 °F 100% 29.80 in 10.0 mi Calm Calm - N/A   Mostly Cloudy
3:55 AM 48.2 °F 48.2 °F 100% 29.80 in 10.0 mi Calm Calm - N/A   Mostly Cloudy
4:15 AM 48.2 °F 48.2 °F 100% 29.81 in 10.0 mi Calm Calm - N/A   Mostly Cloudy
4:35 AM 48.2 °F 48.2 °F 100% 29.82 in 10.0 mi Calm Calm - N/A   Mostly Cloudy
4:55 AM 50.0 °F 50.0 °F 100% 29.83 in 10.0 mi Calm Calm - N/A   Overcast
5:15 AM 50.0 °F 50.0 °F 100% 29.83 in 10.0 mi Calm Calm - N/A   Overcast
5:35 AM 50.0 °F 50.0 °F 100% 29.84 in 10.0 mi Calm Calm - N/A   Overcast
5:55 AM 50.0 °F 50.0 °F 100% 29.84 in 10.0 mi Calm Calm - N/A   Overcast
6:15 AM 50.0 °F 50.0 °F 100% 29.85 in 10.0 mi Calm Calm - N/A   Overcast
6:35 AM 50.0 °F 50.0 °F 100% 29.85 in 10.0 mi Calm Calm - N/A   Overcast
6:55 AM 50.0 °F 50.0 °F 100% 29.85 in 10.0 mi Calm Calm - N/A   Overcast
7:15 AM 50.0 °F 50.0 °F 100% 29.86 in 10.0 mi Calm Calm - N/A   Overcast
7:35 AM 50.0 °F 50.0 °F 100% 29.87 in 10.0 mi Calm Calm - N/A   Overcast
7:55 AM 51.8 °F 50.0 °F 94% 29.88 in 10.0 mi Calm Calm - N/A   Overcast
8:15 AM 51.8 °F 50.0 °F 94% 29.89 in 10.0 mi Calm Calm - N/A   Overcast
8:35 AM 51.8 °F 50.0 °F 94% 29.89 in 10.0 mi Calm Calm - N/A   Overcast
8:55 AM 51.8 °F 50.0 °F 94% 29.90 in 10.0 mi Calm Calm - N/A   Overcast
9:15 AM 51.8 °F 50.0 °F 94% 29.91 in 10.0 mi Calm Calm - N/A   Overcast
9:35 AM 51.8 °F 50.0 °F 94% 29.91 in 10.0 mi Calm Calm - N/A   Overcast
9:55 AM 51.8 °F 48.2 °F 88% 29.92 in 10.0 mi WNW 3.5 mph - N/A   Overcast
10:15 AM 53.6 °F 50.0 °F 88% 29.93 in 10.0 mi North 5.8 mph - N/A   Overcast
10:35 AM 53.6 °F 50.0 °F 88% 29.93 in 10.0 mi Calm Calm - N/A   Overcast
11:15 AM 53.6 °F 50.0 °F 88% 29.94 in 10.0 mi North 3.5 mph - N/A   Overcast
11:35 AM 53.6 °F 50.0 °F 88% 29.95 in 10.0 mi NNW 3.5 mph - N/A   Overcast
11:55 AM 53.6 °F 50.0 °F 88% 29.95 in 10.0 mi NNW 5.8 mph - N/A   Overcast
12:15 PM 53.6 °F 50.0 °F 88% 29.96 in 10.0 mi NNW 4.6 mph - N/A   Overcast
12:35 PM 53.6 °F 50.0 °F 88% 29.96 in 10.0 mi North 3.5 mph - N/A   Overcast
12:55 PM 53.6 °F 48.2 °F 82% 29.96 in 10.0 mi Calm Calm - N/A   Overcast
1:15 PM 55.4 °F 48.2 °F 77% 29.96 in 10.0 mi NNW 3.5 mph - N/A   Overcast
1:35 PM 55.4 °F 50.0 °F 82% 29.96 in 10.0 mi North 3.5 mph - N/A   Mostly Cloudy
1:55 PM 55.4 °F 50.0 °F 82% 29.96 in 10.0 mi North 3.5 mph - N/A   Mostly Cloudy
2:15 PM 55.4 °F 50.0 °F 82% 29.96 in 10.0 mi NNW 4.6 mph - N/A   Overcast
2:35 PM 53.6 °F 48.2 °F 82% 29.97 in 10.0 mi Calm Calm - N/A   Overcast
2:55 PM 53.6 °F 48.2 °F 82% 29.98 in 10.0 mi Calm Calm - N/A   Overcast
3:35 PM 53.6 °F 48.2 °F 82% 29.98 in 10.0 mi Calm Calm - N/A   Overcast
3:55 PM 53.6 °F 48.2 °F 82% 29.98 in 10.0 mi Calm Calm - N/A   Overcast
4:15 PM 55.4 °F 48.2 °F 77% 29.98 in 10.0 mi Calm Calm - N/A   Overcast
4:35 PM 55.4 °F 48.2 °F 77% 29.98 in 10.0 mi Calm Calm - N/A   Overcast
4:55 PM 55.4 °F 48.2 °F 77% 29.98 in 10.0 mi East 3.5 mph - N/A   Overcast
5:15 PM 55.4 °F 48.2 °F 77% 29.98 in 10.0 mi North - - N/A   Overcast
5:35 PM 55.4 °F 48.2 °F 77% 29.98 in 10.0 mi North - - N/A   Overcast
5:55 PM 55.4 °F 48.2 °F 77% 29.99 in 10.0 mi South 4.6 mph - N/A   Overcast
6:15 PM 55.4 °F 48.2 °F 77% 29.99 in 10.0 mi Calm Calm - N/A   Overcast
6:35 PM 55.4 °F 48.2 °F 77% 29.99 in 10.0 mi Calm Calm - N/A   Overcast
6:55 PM 55.4 °F 48.2 °F 77% 30.00 in 10.0 mi Calm Calm - N/A   Overcast
7:15 PM 55.4 °F 48.2 °F 77% 30.00 in 10.0 mi South 5.8 mph - N/A   Overcast
7:35 PM 55.4 °F 48.2 °F 77% 30.00 in 10.0 mi South 3.5 mph - N/A   Overcast
7:55 PM 55.4 °F 48.2 °F 77% 30.01 in 10.0 mi South 8.1 mph - N/A   Overcast
8:15 PM 53.6 °F 48.2 °F 82% 30.01 in 10.0 mi South 8.1 mph - N/A   Overcast
8:35 PM 53.6 °F 48.2 °F 82% 30.01 in 10.0 mi South 9.2 mph - N/A   Overcast
8:55 PM 53.6 °F 48.2 °F 82% 30.01 in 10.0 mi South 10.4 mph - N/A   Overcast
9:15 PM 53.6 °F 48.2 °F 82% 30.00 in 10.0 mi SSW 10.4 mph - N/A   Overcast
9:35 PM 53.6 °F 48.2 °F 82% 30.00 in 10.0 mi South 9.2 mph - N/A   Overcast
9:55 PM 53.6 °F 48.2 °F 82% 30.00 in 10.0 mi South 9.2 mph - N/A   Mostly Cloudy
10:15 PM 53.6 °F 48.2 °F 82% 30.01 in 10.0 mi SSW 9.2 mph - N/A   Mostly Cloudy
10:35 PM 53.6 °F 48.2 °F 82% 30.01 in 10.0 mi South 6.9 mph - N/A   Overcast
10:55 PM 51.8 °F 48.2 °F 88% 30.01 in 10.0 mi South 6.9 mph - N/A   Mostly Cloudy
11:15 PM 53.6 °F 48.2 °F 82% 30.01 in 10.0 mi SSW 8.1 mph - N/A   Mostly Cloudy
11:35 PM 53.6 °F 48.2 °F 82% 30.01 in 10.0 mi South 4.6 mph - N/A   Overcast
11:55 PM 53.6 °F 46.4 °F 77% 30.01 in 10.0 mi SSW 4.6 mph - N/A   Overcast